リニア-スペースウォッチ彗星

P/2000 S4 ( LINEAR-Spacewatch )

English version
Home page
Updated on June 8, 2019

---------------------------------------------------------------------

・ プロフィール

発見日 2000年10月2日
発見光度 20.5等
発見者 T. Gehrels (Kitt Peak)

・ 軌道要素

Epoch 2000 Oct. 23.0 TT = JDT 2451840.5
T 2000 Oct. 19.09802 TT                                 MPCW
q   2.2654571            (2000.0)            P               Q
n   0.05184240     Peri.  172.32444     +0.97573820     +0.21441300
a   7.1232685      Node   174.64378     -0.21748396     +0.97250158
e   0.6819638      Incl.   28.32774     -0.02521288     -0.09092711
P  19.01
From 40 observations 2000 Sept. 1-2019 June 1, mean residual 0".5.

・ 星図

・ 光度変化

        m1 = 13.5 + 5 logΔ + 15.0 log r

---------------------------------------------------------------------

軌道要素はM.P.E.C. 2019-L11に掲載されたものです。
星図は StellaNavigator Ver.2.0 for Windows (アストロアーツ編著 / アスキー出版局刊) で作成したものです。
光度グラフはComet for Windowsで作成したものです。

---------------------------------------------------------------------

Copyright(C) Seiichi Yoshida (comet@aerith.net). All rights reserved.